Location: Newark
(2.5000°N, 112.5000°E)
Time: 08:59:55
(UTC+00:00)

LightSail 2 - Visible Passes

Search period start: 20 November 2019 00:00
Search period end: 30 November 2019 00:00
Orbit: 699 x 728 km, 24.0° (Epoch: 19 November)

Date Brightness Start Highest point End Pass type
(mag) Time Alt. Az. Time Alt. Az. Time Alt. Az.
20 Nov 6.0 11:11:42 10° SW 11:16:24 37° SSE 11:19:07 21° ESE visible
20 Nov 7.7 12:56:56 10° WSW 12:58:06 17° W 12:58:06 17° W visible
20 Nov 6.5 21:49:22 10° NW 21:53:51 29° NNE 21:58:23 10° E visible
21 Nov 5.0 11:58:54 10° WSW 12:03:52 80° NW 12:03:52 80° NW visible
21 Nov 6.8 20:53:57 18° N 20:55:50 21° NNE 20:59:47 10° ENE visible
22 Nov 5.2 11:01:01 10° WSW 11:06:06 69° SSE 11:09:38 20° ENE visible
22 Nov 7.5 12:47:10 10° W 12:48:37 17° WNW 12:48:37 17° WNW visible
22 Nov 7.6 19:59:43 13° NE 19:59:43 13° NE 20:00:55 10° ENE visible
22 Nov 5.7 21:38:42 11° NW 21:43:36 51° NNE 21:48:39 10° E visible
23 Nov 5.7 11:48:51 10° W 11:53:42 44° NNW 11:54:22 42° N visible
23 Nov 6.1 20:44:27 31° N 20:45:38 35° NNE 20:50:22 10° E visible
24 Nov 5.3 10:50:42 10° WSW 10:55:47 65° NNW 11:00:08 14° NE visible
24 Nov 7.6 12:37:54 10° WNW 12:39:07 14° NW 12:39:07 14° NW visible
24 Nov 7.4 19:50:12 17° ENE 19:50:12 17° ENE 19:51:53 10° ENE visible
24 Nov 5.1 21:29:11 16° WNW 21:33:16 89° SSW 21:38:29 10° ESE visible
25 Nov 6.5 11:39:13 10° WNW 11:43:28 26° NNW 11:44:51 23° N visible
25 Nov 5.2 20:34:56 61° N 20:35:20 63° NNE 20:40:27 10° ESE visible
26 Nov 6.2 10:40:46 10° W 10:45:28 36° NNW 10:50:08 10° NE visible
26 Nov 7.7 12:29:25 10° NW 12:29:33 10° NW 12:29:33 10° NW visible
26 Nov 7.5 19:40:39 19° E 19:40:39 19° E 19:42:15 10° E visible
26 Nov 5.7 21:19:38 20° W 21:22:55 48° SSW 21:27:55 10° SE visible
27 Nov 7.1 11:30:09 10° WNW 11:33:18 16° NNW 11:35:16 13° N visible
27 Nov 5.2 20:25:21 68° S 20:25:21 68° S 20:30:07 10° ESE visible
28 Nov 6.9 10:31:18 10° WNW 10:35:13 22° NNW 10:39:08 10° NNE visible
28 Nov 7.7 19:31:01 17° ESE 19:31:01 17° ESE 19:32:10 10° ESE visible
28 Nov 6.5 21:10:00 18° WSW 21:12:35 27° SSW 21:16:56 10° SSE visible
29 Nov 7.5 11:22:16 10° NNW 11:23:16 10° NNW 11:24:15 10° N visible
29 Nov 6.3 20:15:39 34° S 20:15:39 34° S 20:19:23 10° SE visible
29 Nov 7.5 21:58:54 10° SW 22:00:26 11° SSW 22:01:59 10° S visible
